QR8500 LIRF-LEBL

Flight info

Callsign QR8500
Flight time 1h 17m
Altitude 35000
Route SOSAK5AXESINO8H/25 ESINO DCT ABIDU DCT EPIKU/N0471F360 DCT GINOX DCT KIFMI DCT ELVOP DCT MUREN DCT CHELY DCT VERSO
Aircraft B77L/H-SDE1E2E3FGHIJ2J3J4J5M1RWXY/LB1D1

Departure

Time 2026-05-06 18:21
Airport Rome–Fiumicino Leonardo da Vinci International Airport (LIRF)

Arrival

Time 2026-05-06 19:39
Airport Josep Tarradellas Barcelona-El Prat Airport (LEBL)
Time Latitude Longitude Altitude Speed Heading
2026-05-06 17:49 41.79713 12.24272 19 ft 0 kts 219°
2026-05-06 18:04 41.79723 12.24283 23 ft 2 kts 221°
2026-05-06 18:04 41.79736 12.24297 23 ft 2 kts 219°
2026-05-06 18:04 41.79749 12.24311 23 ft 2 kts 228°
2026-05-06 18:04 41.79755 12.24331 24 ft 2 kts 279°
2026-05-06 18:05 41.79751 12.24352 24 ft 2 kts 282°
2026-05-06 18:05 41.79744 12.24371 24 ft 2 kts 321°
2026-05-06 18:05 41.79730 12.24384 24 ft 2 kts 332°
2026-05-06 18:05 41.79716 12.24393 24 ft 2 kts 337°
2026-05-06 18:06 41.79700 12.24402 24 ft 2 kts 339°
2026-05-06 18:06 41.79693 12.24405 24 ft 1 kts 339°
2026-05-06 18:11 41.79699 12.24402 21 ft 5 kts 339°
2026-05-06 18:12 41.79713 12.24395 19 ft 0 kts 339°
2026-05-06 18:12 41.79771 12.24366 19 ft 14 kts 340°
2026-05-06 18:12 41.79849 12.24379 19 ft 12 kts 28°
2026-05-06 18:13 41.79929 12.24384 19 ft 12 kts 353°
2026-05-06 18:13 41.79992 12.24434 19 ft 12 kts 70°
2026-05-06 18:13 41.80015 12.24539 19 ft 12 kts 72°
2026-05-06 18:13 41.80044 12.24641 19 ft 12 kts 69°
2026-05-06 18:14 41.80079 12.24739 19 ft 12 kts 46°
2026-05-06 18:14 41.80155 12.24780 19 ft 12 kts 27°
2026-05-06 18:14 41.80200 12.24872 22 ft 13 kts 76°
2026-05-06 18:14 41.80207 12.24991 19 ft 13 kts 88°
2026-05-06 18:15 41.80216 12.25110 22 ft 13 kts 76°
2026-05-06 18:15 41.80248 12.25223 20 ft 13 kts 69°
2026-05-06 18:15 41.80279 12.25335 19 ft 13 kts 70°
2026-05-06 18:15 41.80310 12.25448 19 ft 13 kts 70°
2026-05-06 18:16 41.80341 12.25561 19 ft 13 kts 69°
2026-05-06 18:16 41.80373 12.25674 19 ft 13 kts 69°
2026-05-06 18:16 41.80405 12.25788 21 ft 14 kts 70°
2026-05-06 18:16 41.80438 12.25910 19 ft 14 kts 70°
2026-05-06 18:17 41.80472 12.26033 19 ft 15 kts 70°
2026-05-06 18:17 41.80484 12.26078 19 ft 8 kts 69°
2026-05-06 18:17 41.80528 12.26229 19 ft 20 kts 69°
2026-05-06 18:17 41.80574 12.26403 19 ft 20 kts 70°
2026-05-06 18:18 41.80621 12.26575 19 ft 20 kts 69°
2026-05-06 18:18 41.80670 12.26747 19 ft 20 kts 69°
2026-05-06 18:18 41.80717 12.26921 19 ft 20 kts 70°
2026-05-06 18:18 41.80784 12.27041 19 ft 16 kts 14°
2026-05-06 18:19 41.80864 12.27016 21 ft 0 kts 339°
2026-05-06 18:20 41.80865 12.27016 21 ft 1 kts 339°
2026-05-06 18:20 41.80934 12.26976 19 ft 20 kts 323°
2026-05-06 18:20 41.80923 12.26798 18 ft 24 kts 249°
2026-05-06 18:20 41.80818 12.26419 25 ft 77 kts 250°
2026-05-06 18:21 41.80503 12.25295 25 ft 179 kts 248°
2026-05-06 18:21 41.80014 12.23477 581 ft 217 kts 250°
2026-05-06 18:21 41.79526 12.21546 1715 ft 214 kts 246°
2026-05-06 18:21 41.79216 12.19551 2290 ft 229 kts 264°
2026-05-06 18:22 41.79184 12.17348 2770 ft 241 kts 265°
2026-05-06 18:22 41.78928 12.15110 3158 ft 249 kts 239°
2026-05-06 18:22 41.77817 12.13380 3830 ft 245 kts 219°
2026-05-06 18:22 41.76531 12.11842 4562 ft 249 kts 221°
2026-05-06 18:23 41.75257 12.10266 5415 ft 249 kts 221°
2026-05-06 18:23 41.73973 12.08673 6198 ft 254 kts 222°
2026-05-06 18:23 41.72666 12.07051 7025 ft 257 kts 222°
2026-05-06 18:23 41.71334 12.05435 7822 ft 259 kts 216°
2026-05-06 18:24 41.69693 12.04453 8570 ft 263 kts 190°
2026-05-06 18:24 41.67861 12.04342 9336 ft 267 kts 180°
2026-05-06 18:24 41.66000 12.04356 10164 ft 268 kts 181°
2026-05-06 18:24 41.64097 12.04367 10641 ft 283 kts 180°
2026-05-06 18:25 41.62087 12.04055 10787 ft 305 kts 200°
2026-05-06 18:25 41.60210 12.02568 10969 ft 325 kts 217°
2026-05-06 18:25 41.58380 12.00604 11171 ft 349 kts 218°
2026-05-06 18:25 41.56464 11.98531 11819 ft 359 kts 218°
2026-05-06 18:26 41.54505 11.96419 12673 ft 365 kts 218°
2026-05-06 18:26 41.52480 11.94254 13478 ft 372 kts 218°
2026-05-06 18:26 41.50439 11.92084 14318 ft 377 kts 218°
2026-05-06 18:26 41.48386 11.89911 15216 ft 377 kts 218°
2026-05-06 18:27 41.46324 11.87734 16122 ft 379 kts 218°
2026-05-06 18:27 41.44248 11.85546 16940 ft 382 kts 218°
2026-05-06 18:27 41.42150 11.83340 17747 ft 386 kts 218°
2026-05-06 18:27 41.40152 11.80934 18392 ft 391 kts 227°
2026-05-06 18:28 41.38506 11.78021 19047 ft 396 kts 236°
2026-05-06 18:28 41.37169 11.74807 19810 ft 399 kts 245°
2026-05-06 18:28 41.36174 11.71351 20540 ft 401 kts 248°
2026-05-06 18:28 41.35236 11.67839 21199 ft 405 kts 249°
2026-05-06 18:29 41.34300 11.64294 21857 ft 408 kts 249°
2026-05-06 18:29 41.33354 11.60717 22539 ft 411 kts 249°
2026-05-06 18:29 41.32392 11.57117 23240 ft 414 kts 249°
2026-05-06 18:29 41.31418 11.53503 23836 ft 417 kts 249°
2026-05-06 18:30 41.30431 11.49865 24414 ft 419 kts 249°
2026-05-06 18:30 41.29435 11.46215 24997 ft 421 kts 248°
2026-05-06 18:30 41.28431 11.42550 25559 ft 423 kts 248°
2026-05-06 18:30 41.27420 11.38865 26121 ft 426 kts 248°
2026-05-06 18:31 41.26400 11.35158 26672 ft 428 kts 248°
2026-05-06 18:31 41.25375 11.31436 27214 ft 430 kts 248°
2026-05-06 18:31 41.24343 11.27695 27751 ft 432 kts 248°
2026-05-06 18:31 41.23304 11.23932 28281 ft 435 kts 248°
2026-05-06 18:32 41.22260 11.20156 28785 ft 437 kts 248°
2026-05-06 18:32 41.21209 11.16364 29290 ft 439 kts 248°
2026-05-06 18:32 41.20154 11.12557 29767 ft 440 kts 248°
2026-05-06 18:32 41.19081 11.08694 30340 ft 438 kts 248°
2026-05-06 18:33 41.18031 11.04918 30953 ft 434 kts 248°
2026-05-06 18:33 41.16989 11.01174 31526 ft 431 kts 247°
2026-05-06 18:33 41.15950 10.97449 32025 ft 430 kts 247°
2026-05-06 18:33 41.14912 10.93735 32483 ft 429 kts 247°
2026-05-06 18:34 41.13876 10.90032 32953 ft 428 kts 246°
2026-05-06 18:34 41.12841 10.86341 33419 ft 426 kts 246°
2026-05-06 18:34 41.11809 10.82665 33869 ft 425 kts 246°
2026-05-06 18:34 41.10776 10.78989 34221 ft 425 kts 246°
2026-05-06 18:35 41.09743 10.75317 34512 ft 425 kts 246°
2026-05-06 18:35 41.08707 10.71645 34823 ft 426 kts 246°
2026-05-06 18:35 41.06612 10.64228 34948 ft 431 kts 247°
2026-05-06 18:36 41.04519 10.56834 34954 ft 426 kts 247°
2026-05-06 18:36 41.02441 10.49515 34962 ft 424 kts 247°
2026-05-06 18:37 41.00713 10.43451 34958 ft 424 kts 247°
2026-05-06 18:37 40.98926 10.34608 34967 ft 428 kts 257°
2026-05-06 18:38 40.98319 10.26736 34966 ft 432 kts 262°
2026-05-06 18:38 40.97951 10.18794 34963 ft 433 kts 263°
2026-05-06 18:39 40.97577 10.10835 34966 ft 434 kts 262°
2026-05-06 18:40 40.96975 9.98863 34963 ft 435 kts 262°
2026-05-06 18:40 40.96555 9.90825 34966 ft 435 kts 262°
2026-05-06 18:41 40.96132 9.82832 34968 ft 436 kts 263°
2026-05-06 18:41 40.95704 9.74832 34969 ft 435 kts 263°
2026-05-06 18:42 40.95271 9.66854 34976 ft 435 kts 263°
2026-05-06 18:42 40.94832 9.58870 34971 ft 435 kts 263°
2026-05-06 18:43 40.94464 9.52246 34970 ft 434 kts 263°
2026-05-06 18:43 40.94016 9.44284 34963 ft 434 kts 263°
2026-05-06 18:44 40.93563 9.36329 34975 ft 434 kts 263°
2026-05-06 18:44 40.93105 9.28374 34967 ft 433 kts 263°
2026-05-06 18:45 40.92639 9.20386 34965 ft 432 kts 263°
2026-05-06 18:45 40.92171 9.12462 34964 ft 432 kts 263°
2026-05-06 18:46 40.91698 9.04547 34966 ft 432 kts 263°
2026-05-06 18:46 40.91221 8.96644 34973 ft 431 kts 262°
2026-05-06 18:47 40.90739 8.88735 34970 ft 432 kts 262°
2026-05-06 18:47 40.90250 8.80833 34966 ft 431 kts 262°
2026-05-06 18:48 40.89756 8.72932 34968 ft 431 kts 262°
2026-05-06 18:48 40.89258 8.65040 34966 ft 431 kts 262°
2026-05-06 18:49 40.88754 8.57143 34966 ft 431 kts 262°
2026-05-06 18:49 40.88247 8.49287 34967 ft 431 kts 262°
2026-05-06 18:50 40.87730 8.41370 34966 ft 431 kts 262°
2026-05-06 18:50 40.87207 8.33424 34970 ft 431 kts 262°
2026-05-06 18:51 40.86681 8.25525 34971 ft 431 kts 262°
2026-05-06 18:51 40.86151 8.17632 34966 ft 432 kts 262°
2026-05-06 18:52 40.85751 8.09721 34978 ft 433 kts 267°
2026-05-06 18:52 40.86105 8.01749 34963 ft 435 kts 270°
2026-05-06 18:53 40.86580 7.93782 34967 ft 435 kts 272°
2026-05-06 18:53 40.87152 7.85822 34966 ft 435 kts 272°
2026-05-06 18:54 40.87720 7.77854 34970 ft 435 kts 272°
2026-05-06 18:54 40.88268 7.69897 34970 ft 435 kts 271°
2026-05-06 18:55 40.88802 7.61945 34972 ft 434 kts 271°
2026-05-06 18:55 40.89328 7.54005 34971 ft 434 kts 271°
2026-05-06 18:56 40.89848 7.46085 34971 ft 433 kts 271°
2026-05-06 18:56 40.90366 7.38095 34973 ft 432 kts 271°
2026-05-06 18:57 40.90872 7.30234 34975 ft 432 kts 271°
2026-05-06 18:57 40.91377 7.22285 34971 ft 431 kts 271°
2026-05-06 18:58 40.92343 7.06830 34975 ft 430 kts 271°
2026-05-06 18:59 40.92828 6.98954 34975 ft 429 kts 271°
2026-05-06 18:59 40.93306 6.91091 34974 ft 429 kts 271°
2026-05-06 19:00 40.93778 6.83247 34976 ft 428 kts 271°
2026-05-06 19:00 40.94245 6.75383 34970 ft 428 kts 271°
2026-05-06 19:01 40.94706 6.67548 34981 ft 427 kts 271°
2026-05-06 19:01 40.95160 6.59728 34979 ft 426 kts 271°
2026-05-06 19:02 40.95609 6.51913 34976 ft 426 kts 271°
2026-05-06 19:02 40.96051 6.44103 34977 ft 425 kts 271°
2026-05-06 19:03 40.96491 6.36255 34975 ft 425 kts 271°
2026-05-06 19:03 40.96923 6.28461 34976 ft 424 kts 270°
2026-05-06 19:04 40.97348 6.20681 34978 ft 424 kts 270°
2026-05-06 19:04 40.97768 6.12907 34977 ft 423 kts 270°
2026-05-06 19:05 40.98182 6.05135 34977 ft 423 kts 270°
2026-05-06 19:05 40.98591 5.97374 34977 ft 423 kts 270°
2026-05-06 19:06 40.98994 5.89615 34979 ft 422 kts 270°
2026-05-06 19:06 40.99391 5.81864 34972 ft 422 kts 270°
2026-05-06 19:07 40.99783 5.74113 34973 ft 422 kts 270°
2026-05-06 19:07 41.00170 5.66372 34975 ft 421 kts 270°
2026-05-06 19:08 41.00551 5.58635 34973 ft 421 kts 270°
2026-05-06 19:08 41.00927 5.50904 34980 ft 421 kts 270°
2026-05-06 19:09 41.01298 5.43179 34975 ft 420 kts 270°
2026-05-06 19:09 41.01672 5.35454 34975 ft 420 kts 270°
2026-05-06 19:10 41.02080 5.27739 34975 ft 420 kts 270°
2026-05-06 19:10 41.02489 5.19979 34977 ft 420 kts 270°
2026-05-06 19:11 41.02886 5.12274 34976 ft 419 kts 270°
2026-05-06 19:11 41.03276 5.04576 34978 ft 419 kts 270°
2026-05-06 19:12 41.03660 4.96881 34976 ft 419 kts 270°
2026-05-06 19:12 41.04039 4.89188 34975 ft 418 kts 270°
2026-05-06 19:13 41.04411 4.81579 34384 ft 410 kts 270°
2026-05-06 19:13 41.04604 4.77838 33902 ft 406 kts 271°
2026-05-06 19:13 41.04955 4.74136 33339 ft 403 kts 274°
2026-05-06 19:13 41.05371 4.70478 32823 ft 399 kts 274°
2026-05-06 19:14 41.05780 4.66863 32322 ft 395 kts 274°
2026-05-06 19:14 41.06169 4.63281 31852 ft 390 kts 273°
2026-05-06 19:14 41.06540 4.59740 31367 ft 386 kts 273°
2026-05-06 19:14 41.06905 4.56229 30898 ft 383 kts 273°
2026-05-06 19:15 41.07267 4.52757 30447 ft 379 kts 273°
2026-05-06 19:15 41.07628 4.49295 29971 ft 384 kts 273°
2026-05-06 19:15 41.08007 4.45668 29445 ft 411 kts 274°
2026-05-06 19:15 41.08412 4.41806 28893 ft 436 kts 274°
2026-05-06 19:16 41.08845 4.37718 28313 ft 459 kts 274°
2026-05-06 19:16 41.09298 4.33466 27909 ft 475 kts 275°
2026-05-06 19:16 41.09764 4.29119 27654 ft 464 kts 275°
2026-05-06 19:16 41.10210 4.25047 27099 ft 433 kts 274°
2026-05-06 19:17 41.10623 4.21230 26915 ft 402 kts 274°
2026-05-06 19:17 41.11002 4.17688 26706 ft 378 kts 274°
2026-05-06 19:17 41.11362 4.14216 26667 ft 381 kts 274°
2026-05-06 19:17 41.11718 4.10751 26574 ft 371 kts 274°
2026-05-06 19:18 41.12062 4.07436 25995 ft 356 kts 274°
2026-05-06 19:18 41.12394 4.04229 25334 ft 346 kts 274°
2026-05-06 19:18 41.12713 4.01124 24586 ft 340 kts 274°
2026-05-06 19:18 41.13036 3.97958 23731 ft 338 kts 274°
2026-05-06 19:19 41.13352 3.94864 22733 ft 338 kts 274°
2026-05-06 19:19 41.13665 3.91806 22090 ft 328 kts 274°
2026-05-06 19:19 41.13966 3.88871 21673 ft 316 kts 274°
2026-05-06 19:19 41.14256 3.86033 21292 ft 307 kts 274°
2026-05-06 19:20 41.14539 3.83245 20931 ft 304 kts 274°
2026-05-06 19:20 41.14822 3.80431 20579 ft 315 kts 274°
2026-05-06 19:20 41.15118 3.77482 20206 ft 327 kts 275°
2026-05-06 19:20 41.15418 3.74511 19792 ft 321 kts 275°
2026-05-06 19:21 41.15710 3.71640 19392 ft 308 kts 275°
2026-05-06 19:21 41.15988 3.68885 19014 ft 294 kts 275°
2026-05-06 19:21 41.16253 3.66250 18668 ft 283 kts 275°
2026-05-06 19:21 41.16509 3.63692 18333 ft 278 kts 275°
2026-05-06 19:22 41.16761 3.61145 17971 ft 281 kts 275°
2026-05-06 19:22 41.17013 3.58581 17639 ft 298 kts 275°
2026-05-06 19:22 41.17289 3.55759 17254 ft 318 kts 275°
2026-05-06 19:22 41.17577 3.52839 16831 ft 317 kts 276°
2026-05-06 19:23 41.17860 3.49987 16422 ft 305 kts 276°
2026-05-06 19:23 41.18131 3.47253 16033 ft 292 kts 276°
2026-05-06 19:23 41.18388 3.44646 15702 ft 279 kts 276°
2026-05-06 19:23 41.18639 3.42087 15390 ft 282 kts 276°
2026-05-06 19:24 41.18896 3.39445 15069 ft 297 kts 276°
2026-05-06 19:24 41.19169 3.36629 14727 ft 317 kts 276°
2026-05-06 19:24 41.19452 3.33713 14599 ft 319 kts 276°
2026-05-06 19:24 41.19736 3.30796 14378 ft 317 kts 276°
2026-05-06 19:25 41.20017 3.27894 14061 ft 317 kts 277°
2026-05-06 19:25 41.20298 3.24990 13732 ft 318 kts 277°
2026-05-06 19:25 41.20577 3.22090 13414 ft 316 kts 277°
2026-05-06 19:25 41.20854 3.19199 13107 ft 314 kts 277°
2026-05-06 19:26 41.21184 3.16343 12781 ft 313 kts 281°
2026-05-06 19:26 41.21522 3.14444 12565 ft 312 kts 284°
2026-05-06 19:26 41.22094 3.11668 12273 ft 311 kts 285°
2026-05-06 19:26 41.22685 3.08913 11959 ft 309 kts 285°
2026-05-06 19:27 41.23272 3.06170 11659 ft 308 kts 285°
2026-05-06 19:27 41.23851 3.03429 11363 ft 307 kts 285°
2026-05-06 19:27 41.24420 3.00708 11074 ft 306 kts 285°
2026-05-06 19:27 41.24985 2.97974 10677 ft 308 kts 285°
2026-05-06 19:28 41.25549 2.95229 10269 ft 307 kts 285°
2026-05-06 19:28 41.26108 2.92498 9850 ft 305 kts 285°
2026-05-06 19:28 41.26661 2.89783 9413 ft 303 kts 285°
2026-05-06 19:28 41.27209 2.87081 8950 ft 302 kts 285°
2026-05-06 19:29 41.27755 2.84388 8457 ft 302 kts 285°
2026-05-06 19:29 41.28301 2.81687 7963 ft 303 kts 285°
2026-05-06 19:29 41.28847 2.78986 7447 ft 303 kts 285°
2026-05-06 19:29 41.29392 2.76281 6981 ft 303 kts 285°
2026-05-06 19:30 41.29937 2.73576 6480 ft 303 kts 285°
2026-05-06 19:30 41.30481 2.70870 5980 ft 303 kts 285°
2026-05-06 19:30 41.31024 2.68171 5463 ft 302 kts 285°
2026-05-06 19:30 41.31566 2.65468 4980 ft 302 kts 285°
2026-05-06 19:31 41.32107 2.62773 4483 ft 301 kts 284°
2026-05-06 19:31 41.32634 2.60136 3948 ft 288 kts 284°
2026-05-06 19:31 41.33624 2.55182 2905 ft 268 kts 284°
2026-05-06 19:32 41.34103 2.52778 2464 ft 261 kts 283°
2026-05-06 19:32 41.34560 2.50477 2325 ft 264 kts 283°
2026-05-06 19:32 41.35041 2.48054 2299 ft 266 kts 283°
2026-05-06 19:32 41.35507 2.45711 2286 ft 258 kts 283°
2026-05-06 19:33 41.35949 2.43481 2274 ft 247 kts 283°
2026-05-06 19:33 41.36378 2.41322 2332 ft 239 kts 283°
2026-05-06 19:33 41.36800 2.39189 2302 ft 236 kts 283°
2026-05-06 19:33 41.37210 2.37118 2287 ft 226 kts 283°
2026-05-06 19:34 41.37607 2.35106 2304 ft 224 kts 283°
2026-05-06 19:34 41.37945 2.33155 2272 ft 207 kts 271°
2026-05-06 19:34 41.37730 2.31329 2300 ft 199 kts 249°
2026-05-06 19:34 41.37186 2.29658 2311 ft 195 kts 244°
2026-05-06 19:35 41.36627 2.28083 2293 ft 180 kts 244°
2026-05-06 19:35 41.36136 2.26667 2284 ft 158 kts 244°
2026-05-06 19:35 41.35691 2.25367 2288 ft 154 kts 243°
2026-05-06 19:35 41.35242 2.24056 2269 ft 158 kts 244°
2026-05-06 19:36 41.34782 2.22706 2035 ft 159 kts 244°
2026-05-06 19:36 41.34328 2.21375 1819 ft 157 kts 244°
2026-05-06 19:36 41.33880 2.20061 1614 ft 156 kts 244°
2026-05-06 19:36 41.33432 2.18749 1408 ft 156 kts 244°
2026-05-06 19:37 41.32984 2.17436 1186 ft 156 kts 244°
2026-05-06 19:37 41.32534 2.16116 977 ft 158 kts 244°
2026-05-06 19:37 41.32082 2.14805 759 ft 159 kts 244°
2026-05-06 19:37 41.31625 2.13462 528 ft 159 kts 245°
2026-05-06 19:38 41.31173 2.12120 296 ft 159 kts 244°
2026-05-06 19:38 41.30716 2.10804 106 ft 157 kts 245°
2026-05-06 19:38 41.30270 2.09501 26 ft 147 kts 245°
2026-05-06 19:38 41.29910 2.08441 29 ft 97 kts 245°
2026-05-06 19:39 41.29707 2.07848 23 ft 44 kts 245°
2026-05-06 19:39 41.29591 2.07506 25 ft 44 kts 245°
2026-05-06 19:39 41.29455 2.07171 23 ft 19 kts 206°
2026-05-06 19:39 41.29340 2.07157 21 ft 6 kts 158°
2026-05-06 19:40 41.29327 2.07169 22 ft 1 kts 137°
2026-05-06 19:40 41.29322 2.07176 22 ft 0 kts 135°
2026-05-06 19:41 41.29306 2.07228 22 ft 11 kts 89°
2026-05-06 19:41 41.29327 2.07285 23 ft 6 kts 62°
2026-05-06 19:41 41.29314 2.07338 23 ft 7 kts 134°
2026-05-06 19:42 41.29274 2.07372 23 ft 7 kts 153°
2026-05-06 19:42 41.29265 2.07376 24 ft 1 kts 163°
2026-05-06 19:42 41.29226 2.07358 26 ft 10 kts 224°
2026-05-06 19:42 41.29178 2.07348 25 ft 0 kts 149°
2026-05-06 19:43 41.29170 2.07355 25 ft 2 kts 150°
2026-05-06 19:43 41.29155 2.07364 26 ft 0 kts 154°